Weather History for Waukegan, IL

Change the Weather History Date:

Wednesday, January 2, 2013

  Actual Average Record
Temperature  
Mean Temperature 18 °F -  
Max Temperature 28 °F 32 °F 59 °F (2000)
Min Temperature 8 °F 17 °F 0 °F (2014)
Degree Days  
Heating Degree Days 47 41  
Month to date heating degree days 97 81  
Since 1 July heating degree days 2476 2630  
Cooling Degree Days 0 0  
Month to date cooling degree days 0 0  
Year to date cooling degree days 0 0  
Moisture  
Dew Point 11 °F    
Average Humidity 64    
Maximum Humidity 77    
Minimum Humidity 50    
Precipitation  
Precipitation 0.00 in 0.04 in 0.64 in (2006)
Month to date precipitation 0.00 0.09  
Year to date precipitation 0.00 0.09  
Sea Level Pressure  
Sea Level Pressure 30.16 in    
Wind  
Wind Speed 7 mph (SSW)    
Max Wind Speed 15 mph    
Max Gust Speed 20 mph    
Visibility 10 miles    
Events      
T = Trace of Precipitation, MM = Missing Value Source: NWS Daily Summary

Daily Weather History Graph

Daily Weather History Graph

Search for Another Location

Airport:

Trip Planner

Search our weather history database for the weather conditions in past years. The results will help you decide how hot, cold, wet, or windy it might be!

Date:

Astronomy

Jan. 02, 2013 Rise Set
Actual Time 7:21 AM CST 4:30 PM CST
Civil Twilight 6:49 AM CST 5:02 PM CST
Nautical Twilight 6:13 AM CST 5:37 PM CST
Astronomical Twilight 5:39 AM CST 6:11 PM CST
Moon 10:10 PM CST (1/2) 9:56 AM CST (1/2)
Length of Visible Light 10h 13m
Length of Day
9h 09m
Waning Gibbous, 75% of the Moon is Illuminated
Jan 2
Waning Gibbous
Jan 4
Last Quarter
Jan 11
New
Jan 18
First Quarter
Jan 26
Full

Hourly Weather History & Observations

Time (CST) Temp. Windchill Dew Point Humidity Pressure Visibility Wind Dir Wind Speed Gust Speed Precip Events Conditions
12:52 AM 9.0 °F 2.4 °F 1.0 °F 70% 30.21 in 10.0 mi WSW 3.5 mph - N/A   Mostly Cloudy
1:52 AM 10.9 °F 1.4 °F 1.9 °F 67% 30.22 in 10.0 mi WSW 5.8 mph - N/A   Overcast
3:52 AM 12.9 °F 3.8 °F 3.9 °F 67% 30.20 in 10.0 mi WSW 5.8 mph - N/A   Overcast
4:52 AM 14.0 °F 6.5 °F 6.1 °F 71% 30.21 in 10.0 mi WSW 4.6 mph - N/A   Overcast
6:52 AM 16.0 °F 10.4 °F 9.0 °F 74% 30.22 in 10.0 mi SW 3.5 mph - N/A   Overcast
7:52 AM 17.1 °F - 10.0 °F 74% 30.23 in 10.0 mi Calm Calm - N/A   Overcast
9:52 AM 19.9 °F 12.1 °F 12.0 °F 71% 30.23 in 10.0 mi SSW 5.8 mph - N/A   Clear
10:52 AM 21.9 °F 14.5 °F 10.9 °F 63% 30.21 in 10.0 mi South 5.8 mph - N/A   Clear
11:52 AM 24.1 °F 14.4 °F 12.0 °F 60% 30.18 in 10.0 mi South 9.2 mph - N/A   Clear
12:52 PM 26.1 °F 17.6 °F 10.9 °F 53% 30.15 in 10.0 mi SSW 8.1 mph - N/A   Clear
1:52 PM 27.0 °F 18.0 °F 12.0 °F 53% 30.13 in 10.0 mi South 9.2 mph - N/A   Clear
2:52 PM 28.0 °F 20.8 °F 12.0 °F 51% 30.12 in 10.0 mi South 6.9 mph - N/A   Clear
3:52 PM 28.0 °F 19.3 °F 12.0 °F 51% 30.13 in 10.0 mi South 9.2 mph - N/A   Clear
4:52 PM 26.1 °F 19.4 °F 12.0 °F 55% 30.13 in 10.0 mi South 5.8 mph - N/A   Clear
5:52 PM 26.1 °F 16.2 °F 14.0 °F 60% 30.14 in 10.0 mi SSW 10.4 mph - N/A   Clear
6:52 PM 25.0 °F 14.8 °F 14.0 °F 63% 30.14 in 10.0 mi South 10.4 mph - N/A   Overcast
7:52 PM 24.1 °F 14.4 °F 15.1 °F 69% 30.13 in 10.0 mi SSW 9.2 mph - N/A   Mostly Cloudy
8:52 PM 21.9 °F 9.2 °F 15.1 °F 75% 30.13 in 10.0 mi SSW 13.8 mph - N/A   Partly Cloudy
9:52 PM 21.9 °F 9.8 °F 15.1 °F 75% 30.12 in 10.0 mi SSW 12.7 mph - N/A   Overcast
10:52 PM 23.0 °F 12.4 °F 15.1 °F 72% 30.12 in 10.0 mi SW 10.4 mph - N/A   Overcast
11:52 PM 24.1 °F 12.5 °F 16.0 °F 71% 30.10 in 9.0 mi SW 12.7 mph 17.3 mph N/A   Overcast